Retour au catalogue

STARLINK-35362

ActifCommunicationsVLEO
NORAD 65888·PAYLOAD·🇺🇸 United States

Lancé Oct 7, 2025 depuis Cape Canaveral Space Force Station

Loading…

Prochains Passages (prochaines 24 heures)

TLE

FraisSource: CelesTrak SupGP

Époque: Sep 14, 2026, 23:07 UTC

1 65888C 25224G   26257.96368056 -.00008500  00000+0 -25103-3 0  2570
2 65888  53.1582 211.6184 0001430  94.8054 175.8557 15.34405638    10

Suivez STARLINK-35362 en temps réel avec AllMySat

Download on the App Store